Home > Weather > Zug > Past weeks

Flag for Switzerland Past Weather in Zug, Zug, Switzerland — Yesterday and Last 2 Weeks

Now
63 °F

Mild.


Feels Like: 63 °F
Forecast: 51 / 75 °F
Wind: 2 mph from Northwest

Location: Zuerich-Fluntern

Current Time: Jun 30, 2016 at 12:31:32 PM

Latest Report: Jun 30, 2016 at 11:00 AM


Visibility: N/A

Pressure: 30.04 "Hg

Humidity: 90%

Dew Point: 60 °F

Location of ZugLocation

Past Weather in Zug — Graph

°F

Zug Temperature Yesterday

Maximum temperature yesterday: 76 °F (at 2:00 PM)
Minimum temperature yesterday: 62 °F (at 2:00 AM)
Average temperature yesterday: 69 °F

High & Low Weather Summary for the Past Weeks

 TemperatureHumidityPressure
High90 °F (Jun 23, 6:00 PM)97% (Jun 17, 12:00 AM)30.28 "Hg (Jun 17, 12:00 AM)
Low48 °F (Jun 17, 6:00 AM)38% (Jun 24, 3:00 PM)29.59 "Hg (Jun 16, 5:00 AM)
Average63 °F78%30.03 "Hg
* Reported Jun 15 11:00 AM — Jun 30 11:00 AM, Zug, Weather by CustomWeather, © 2016

Note: Actual official high and low records may vary slightly from our data, if they occured in-between our weather recording intervals... More about our weather records

Advertising

Zug Weather History for the Previous 24 Hours

Scroll right to see more
 ConditionsComfort  
Time TempWeatherWind HumidityBarometerVisibility
11:00 AM
Thu, Jun 30
63 °FMild.2 mph90%30.04 "HgN/A
10:00 AM62 °FCool.1 mph92%30.03 "HgN/A
9:00 AM60 °FCool.1 mph94%30.03 "HgN/A
8:00 AM62 °FOvercast.3 mph95%30.01 "HgN/A
7:00 AM62 °FCool.1 mph96%29.99 "HgN/A
6:00 AM62 °FCool.1 mph95%29.98 "HgN/A
5:00 AM62 °FCool.1 mph96%29.99 "HgN/A
4:00 AM62 °FMild.3 mph95%29.99 "HgN/A
3:00 AM62 °FCool.2 mph94%29.95 "HgN/A
2:00 AM63 °FMild.2 mph82%29.95 "HgN/A
1:00 AM67 °FMild.5 mph78%29.94 "HgN/A
12:00 AM65 °FMild.2 mph79%29.93 "HgN/A
11:00 PM
Wed, Jun 29
67 °FMild.2 mph78%29.94 "HgN/A
10:00 PM69 °FMild.3 mph70%29.91 "HgN/A
9:00 PM71 °FMild.3 mph66%29.89 "HgN/A
8:00 PM75 °FPassing clouds.3 mph61%29.87 "HgN/A
7:00 PM76 °FMild.2 mph58%29.86 "HgN/A
6:00 PM75 °FMild.2 mph56%29.88 "HgN/A
5:00 PM75 °FMild.2 mph56%29.88 "HgN/A
4:00 PM74 °FMild.5 mph56%29.90 "HgN/A
3:00 PM75 °FMild.3 mph54%29.92 "HgN/A
2:00 PM76 °FPassing clouds.5 mph55%29.93 "HgN/A
1:00 PM74 °FMild.7 mph57%29.96 "HgN/A
12:00 PM72 °FMild.5 mph62%29.98 "HgN/A
Weather by CustomWeather, © 2016

See weather overviewHow to use our weather pages